Regional Weather Roundup
Issued by NWS

Home | Current Version | Previous Version | Graphics & Text | Print | Product List | Glossary On
Versions: 1 2 3 4 5 6 7 8 9 10 11 12 13 14 15 16 17 18 19 20 21 22 23 24 25 26 27 28 29 30 31 32 33 34 35 36 37 38 39 40 41 42 43 44 45 46 47 48 49 50
000
ASUS43 KFSD 211702
RWRSD

WEATHER ROUNDUP FOR SOUTH DAKOTA
NATIONAL WEATHER SERVICE SIOUX FALLS SD
1200 PM CDT SAT OCT 21 2017

NOTE: "FAIR" INDICATES FEW OR NO CLOUDS BELOW 12,000 FEET WITH NO
SIGNIFICANT WEATHER AND/OR OBSTRUCTIONS TO VISIBILITY.


SDZ001>005-009-010-012>017-211800-
NORTHWEST AND NORTH CENTRAL SOUTH DAKOTA

CITY           SKY/WX    TMP DP  RH WIND       PRES   REMARKS
BUFFALO          N/A     49  30  48 W36G49    29.70R
MOBRIDGE       LGT RAIN  48  42  80 W16G22    29.67R
$$

SDZ012>016-024>037-041>051-057-063-072>074-211800-
SOUTHWEST AND SOUTH CENTRAL SOUTH DAKOTA

CITY           SKY/WX    TMP DP  RH WIND       PRES   REMARKS
RAPID CTY ARPT CLOUDY    52  22  30 NW17      29.83R
PIERRE         LGT RAIN  47  42  83 NW14      29.74F
CUSTER         SUNNY     41  18  39 W10G28    29.85R
ELLSWORTH AFB  CLOUDY    50  21  31 NW25G37   29.81R
PHILIP         CLOUDY    52  33  48 NW24G30   29.78R
PINE RIDGE     CLOUDY    51  31  46 W14G21    29.86R
SPEARFISH      FAIR      48  21  34 W22       29.84R
WINNER         CLOUDY    48  41  76 NW16G25   29.79R
$$

SDZ004>011-016>023-039-040-211800-
NORTHEAST SOUTH DAKOTA

CITY           SKY/WX    TMP DP  RH WIND       PRES   REMARKS
ABERDEEN       CLOUDY    56  42  59 W23G29    29.58R
WATERTOWN      CLOUDY    51  46  83 NW14G24   29.58R
BROOKINGS      CLOUDY    55  46  71 NW16G26   29.57R
SISSETON         N/A     58  43  57 NW14      29.52R
$$

SDZ017-020-022-023-036>040-048>070-211800-
SOUTHEAST SOUTH DAKOTA

CITY           SKY/WX    TMP DP  RH WIND       PRES   REMARKS
SIOUX FALLS    CLOUDY    61  49  64 W22G29    29.58R
HURON          CLOUDY    56  42  59 NW16      29.64R
CHAMBERLAIN    CLOUDY    51  41  69 NW25G37   29.76R
MITCHELL       LGT RAIN  56  42  59 NW14G24   29.68R
YANKTON        CLOUDY    59  44  57 NW25G35   29.65R
$$

ABBREVIATIONS USED IN REMARKS
   TC - TEMPERATURE IN CELSIUS
  WCI - WIND CHILL INDEX
   HX - HEAT INDEX
  VSB - VISIBILITY





USA.gov is the U.S. government's official web portal to all federal, state and local government web resources and services.